#timestamp,LO_Frequency,Hit,StdDev 
1561629615.1,286047002.8,N
1561629635.9,286047002.4,N
1561629655.7,286047002.2,N
1561629675.6,286047001.7,N
1561629695.4,286047001.5,N
1561629715.2,286047000.1,N
1561629735.1,286047000.2,N
1561629736.0,286047000.2,N
1561629755.8,286047000.3,N
1561629775.6,286047002.4,N
1561629795.5,286047002.7,N
1561629815.3,286046999.7,N
1561629835.2,286046999.7,N
1561629855.9,286047002.3,N
1561629875.7,286047002.0,N
1561629895.6,286047004.0,Y
1561629915.4,286046999.7,P
1561629935.3,286047000.9,N
1561629955.1,286047000.4,N
1561629956.0,286047000.4,N
1561629975.8,286047000.6,N
1561629995.7,286047000.9,N
1561630015.5,286047000.6,N
1561630035.4,286046998.1,Y
1561630055.2,286046998.5,P
1561630075.0,286047000.3,N
1561630075.9,286047000.3,N
1561630095.8,286047000.8,N
1561630115.6,286047000.5,N
1561630135.4,286047000.4,N
1561630155.3,286046999.9,N
1561630175.1,286047000.6,N
1561630195.9,286047000.3,N
1561630215.7,286047000.7,N
1561630235.5,286047002.3,Y
1561630255.4,286047001.0,P
1561630275.2,286047000.5,N
1561630295.1,286047001.0,P
1561630296.0,286047001.0,Y
1561630315.8,286047000.8,P
1561630335.6,286046998.5,P
1561630355.5,286046999.0,N
1561630375.3,286046996.9,Y
1561630395.2,286046998.4,P
1561630415.9,286046998.1,N
1561630435.7,286046998.4,N
1561630455.6,286046998.2,N
1561630475.4,286046998.2,Y
1561630495.2,286046999.8,P
1561630515.1,286047000.2,N
1561630516.0,286047000.2,N
1561630535.8,286047000.1,N
1561630555.7,286047002.0,Y
1561630575.5,286047002.1,P
1561630595.3,286047002.5,N
1561630615.2,286047002.6,N
1561630635.0,286047004.0,Y
1561630635.9,286047004.0,P
1561630655.8,286047000.3,N
1561630675.6,286046998.3,N
1561630695.4,286047000.7,N
1561630715.3,286047000.7,N
1561630735.1,286046998.1,N
1561630755.8,286046998.6,N
1561630775.7,286046998.2,N
1561630795.5,286046998.3,N
1561630815.4,286047000.8,N
1561630835.2,286047001.2,N
1561630855.0,286046998.6,N
1561630855.9,286046998.6,N
1561630875.8,286046998.6,N
1561630895.6,286046998.6,N
1561630915.5,286046998.4,N
1561630935.3,286046998.8,N
1561630955.1,286046997.0,N
1561630975.9,286046999.3,N
1561630995.7,286046999.2,N
1561631015.5,286046999.3,N
1561631035.4,286046996.7,N
1561631055.2,286046999.5,N
1561631075.1,286046997.6,N
1561631076.0,286046997.6,N
1561631095.8,286046997.5,N
1561631115.6,286046997.6,N
1561631135.5,286046995.3,Y
1561631155.3,286046997.8,P
1561631175.2,286046999.1,N
1561631195.9,286046997.0,P
1561631215.7,286046996.7,Y
1561631235.6,286047000.6,P
1561631255.4,286046999.2,N
1561631275.3,286046998.6,N
1561631295.1,286046999.4,N
1561631296.0,286046999.4,N
1561631315.8,286046998.2,N
1561631335.7,286047001.1,N
1561631355.5,286046999.5,N
1561631375.4,286046999.1,N
1561631395.2,286046999.3,N
1561631415.0,286046996.9,Y
1561631415.9,286046996.9,P
1561631435.8,286046999.4,N
1561631455.6,286046998.3,N
1561631475.5,286046998.8,N
1561631495.3,286046999.0,N
1561631515.1,286046996.5,Y
1561631535.9,286046998.6,P
1561631555.7,286046999.3,P
1561631575.5,286046996.6,P
1561631595.4,286046996.9,Y
1561631615.2,286047000.6,P
1561631635.1,286046999.8,N
1561631636.0,286046999.8,N
1561631655.8,286047002.3,N
1561631675.6,286047002.1,N
1561631695.5,286047002.0,N
1561631715.3,286047000.0,N
1561631735.2,286047002.2,N
1561631755.9,286047002.8,N
1561631775.7,286047001.9,N
1561631795.6,286047001.8,N
1561631815.4,286047002.0,N
1561631835.5,286047003.6,N
1561631855.3,286047001.5,N
1561631875.1,286047002.1,N
1561631895.9,286047001.6,N
1561631915.7,286047002.8,N
1561631935.6,286047002.2,N
1561631955.4,286047002.7,N
1561631975.2,286047002.8,N
1561631995.1,286047004.3,Y
1561631996.0,286047004.3,P
1561632015.3,286047002.3,N
1561632035.1,286047002.4,N
1561632055.8,286047002.6,N
1561632075.7,286047002.2,N
1561632095.7,286047000.1,N
1561632115.6,286047000.1,N
1561632135.4,286046999.8,N
1561632155.2,286046999.7,N
1561632175.1,286047000.0,N
1561632176.0,286047000.0,N
1561632195.8,286047000.2,N
1561632215.6,286047000.5,N
1561632235.4,286047001.9,N
1561632255.2,286046999.8,N
1561632275.1,286046999.7,N
1561632276.0,286046999.7,N
1561632295.8,286047000.3,N
1561632315.7,286047000.0,N
1561632335.5,286047000.3,N
1561632355.8,286047000.9,N
1561632375.6,286047000.6,N
1561632395.5,286047000.1,N
1561632415.3,286047000.2,N
1561632435.1,286047001.6,N
1561632455.9,286047002.7,N
1561632475.7,286047000.4,N
1561632495.6,286047000.2,N
1561632515.4,286047001.7,N
1561632535.2,286047001.3,N
1561632555.1,286047002.4,N
1561632556.0,286047002.4,N
1561632575.8,286047003.9,Y
1561632595.7,286046999.8,P
1561632615.5,286047000.6,N
1561632635.4,286047000.2,N
1561632655.2,286047002.4,Y
1561632675.1,286046999.7,P
1561632676.0,286046999.7,N
1561632695.8,286046999.8,N
1561632715.7,286046999.9,N
1561632735.5,286046999.8,N
1561632755.3,286046999.9,N
1561632775.2,286047002.7,Y
1561632795.0,286047002.1,P
1561632795.9,286047002.1,N
1561632815.8,286047001.5,N
1561632835.6,286047001.6,N
1561632855.4,286047002.0,N
1561632875.3,286047000.4,N
1561632895.1,286047000.5,N
1561632915.9,286047000.1,N
1561632935.7,286046999.9,N
1561632955.5,286047002.8,Y
1561632975.4,286047000.0,P
1561632995.2,286046999.8,N
1561633015.5,286047000.2,N
1561633035.4,286047002.8,Y
1561633055.2,286046999.8,P
1561633075.0,286047001.3,P
1561633075.9,286047001.3,N
1561633095.8,286047002.1,Y
1561633115.6,286047002.5,P
1561633135.5,286047002.7,N
1561633155.3,286047000.4,N
1561633175.1,286047002.6,N
1561633195.9,286047000.3,N
